CXI49QL GCFV-GCXO

Flight info

Callsign CXI49QL
Flight time 0h 30m
Altitude 21000
Route LARYS
Aircraft B738/M-SDE2E3FGHIRWXY/LB1

Departure

Time 2026-05-06 23:31
Airport Fuerteventura Airport (GCFV)

Arrival

Time 2026-05-07 00:01
Airport Tenerife Norte-Ciudad de La Laguna Airport (GCXO)
Time Latitude Longitude Altitude Speed Heading
2026-05-06 23:12 28.45222 -13.86833 72 ft 0 kts 270°
2026-05-06 23:22 28.45222 -13.86826 72 ft 2 kts 270°
2026-05-06 23:22 28.45222 -13.86808 62 ft 2 kts 271°
2026-05-06 23:22 28.45221 -13.86789 62 ft 2 kts 270°
2026-05-06 23:23 28.45223 -13.86771 65 ft 2 kts 238°
2026-05-06 23:23 28.45231 -13.86762 68 ft 1 kts 185°
2026-05-06 23:23 28.45235 -13.86761 69 ft 0 kts 182°
2026-05-06 23:26 28.45234 -13.86761 69 ft 0 kts 182°
2026-05-06 23:26 28.45186 -13.86753 70 ft 0 kts 168°
2026-05-06 23:27 28.45174 -13.86750 67 ft 11 kts 168°
2026-05-06 23:27 28.45095 -13.86616 69 ft 30 kts 118°
2026-05-06 23:28 28.44868 -13.86581 64 ft 28 kts 181°
2026-05-06 23:28 28.44596 -13.86589 57 ft 46 kts 181°
2026-05-06 23:28 28.44283 -13.86601 48 ft 46 kts 182°
2026-05-06 23:28 28.43965 -13.86611 37 ft 46 kts 181°
2026-05-06 23:29 28.43691 -13.86620 33 ft 39 kts 182°
2026-05-06 23:29 28.43422 -13.86631 26 ft 38 kts 181°
2026-05-06 23:29 28.43256 -13.86590 22 ft 14 kts 114°
2026-05-06 23:29 28.43254 -13.86567 23 ft 0 kts 93°
2026-05-06 23:30 28.43254 -13.86565 23 ft 4 kts 93°
2026-05-06 23:30 28.43339 -13.86444 30 ft 38 kts 12°
2026-05-06 23:30 28.43843 -13.86423 35 ft 118 kts
2026-05-06 23:30 28.44933 -13.86375 239 ft 184 kts 359°
2026-05-06 23:31 28.46180 -13.86342 1618 ft 179 kts
2026-05-06 23:31 28.47453 -13.85944 2590 ft 202 kts 25°
2026-05-06 23:31 28.48678 -13.85058 3580 ft 218 kts 37°
2026-05-06 23:31 28.49896 -13.83927 4612 ft 229 kts 36°
2026-05-06 23:32 28.51226 -13.82767 5148 ft 253 kts 35°
2026-05-06 23:32 28.52674 -13.81523 5850 ft 265 kts 35°
2026-05-06 23:32 28.54201 -13.80372 6844 ft 262 kts 25°
2026-05-06 23:32 28.55884 -13.79586 7719 ft 263 kts 14°
2026-05-06 23:33 28.57680 -13.79141 8401 ft 272 kts
2026-05-06 23:33 28.58977 -13.79036 8818 ft 279 kts 355°
2026-05-06 23:33 28.60924 -13.79448 9327 ft 292 kts 338°
2026-05-06 23:33 28.62670 -13.80608 9893 ft 301 kts 315°
2026-05-06 23:34 28.63941 -13.82507 10600 ft 301 kts 295°
2026-05-06 23:34 28.64575 -13.84718 11735 ft 287 kts 278°
2026-05-06 23:34 28.64636 -13.86946 12770 ft 282 kts 265°
2026-05-06 23:34 28.64173 -13.89121 13383 ft 287 kts 242°
2026-05-06 23:35 28.62962 -13.90917 14043 ft 294 kts 239°
2026-05-06 23:35 28.62193 -13.93140 14271 ft 313 kts 256°
2026-05-06 23:35 28.61430 -13.95502 14916 ft 323 kts 249°
2026-05-06 23:35 28.60405 -13.97800 15718 ft 328 kts 243°
2026-05-06 23:36 28.59144 -13.99994 16507 ft 334 kts 237°
2026-05-06 23:36 28.57638 -14.02048 17261 ft 342 kts 231°
2026-05-06 23:36 28.55908 -14.03949 17998 ft 350 kts 225°
2026-05-06 23:36 28.54112 -14.05828 18630 ft 350 kts 237°
2026-05-06 23:37 28.52981 -14.08238 19143 ft 345 kts 256°
2026-05-06 23:37 28.52603 -14.10912 19670 ft 343 kts 273°
2026-05-06 23:37 28.52933 -14.13580 20194 ft 342 kts 289°
2026-05-06 23:37 28.53896 -14.16061 20738 ft 343 kts 303°
2026-05-06 23:38 28.55414 -14.18160 21031 ft 344 kts 316°
2026-05-06 23:38 28.57088 -14.20113 21044 ft 346 kts 308°
2026-05-06 23:38 28.58347 -14.22405 21068 ft 347 kts 301°
2026-05-06 23:38 28.59502 -14.24821 21055 ft 348 kts 300°
2026-05-06 23:39 28.60645 -14.27263 21063 ft 355 kts 300°
2026-05-06 23:39 28.61835 -14.29804 21073 ft 372 kts 300°
2026-05-06 23:39 28.63088 -14.32466 21076 ft 388 kts 300°
2026-05-06 23:39 28.64389 -14.35220 21074 ft 402 kts 300°
2026-05-06 23:40 28.65740 -14.38069 21072 ft 414 kts 300°
2026-05-06 23:40 28.67106 -14.40944 21068 ft 419 kts 300°
2026-05-06 23:40 28.68493 -14.43865 21051 ft 419 kts 300°
2026-05-06 23:40 28.69877 -14.46780 21049 ft 417 kts 300°
2026-05-06 23:41 28.71254 -14.49681 21051 ft 416 kts 300°
2026-05-06 23:41 28.72636 -14.52592 21050 ft 416 kts 300°
2026-05-06 23:41 28.74013 -14.55493 21055 ft 416 kts 300°
2026-05-06 23:41 28.75392 -14.58403 21054 ft 417 kts 300°
2026-05-06 23:42 28.76775 -14.61320 21060 ft 418 kts 300°
2026-05-06 23:42 28.78154 -14.64234 21062 ft 418 kts 300°
2026-05-06 23:42 28.79519 -14.67119 21062 ft 419 kts 300°
2026-05-06 23:42 28.80898 -14.70037 21058 ft 419 kts 300°
2026-05-06 23:43 28.82282 -14.72966 21062 ft 420 kts 300°
2026-05-06 23:43 28.83674 -14.75915 21062 ft 420 kts 300°
2026-05-06 23:43 28.85059 -14.78851 21062 ft 420 kts 300°
2026-05-06 23:43 28.86276 -14.81876 21045 ft 424 kts 288°
2026-05-06 23:44 28.86661 -14.85190 21063 ft 431 kts 272°
2026-05-06 23:44 28.86167 -14.88585 21077 ft 437 kts 259°
2026-05-06 23:44 28.85391 -14.91945 21062 ft 438 kts 259°
2026-05-06 23:44 28.84584 -14.95302 21058 ft 439 kts 258°
2026-05-06 23:45 28.83777 -14.98652 21054 ft 439 kts 258°
2026-05-06 23:45 28.82973 -15.02022 21056 ft 439 kts 259°
2026-05-06 23:45 28.82183 -15.05384 21056 ft 439 kts 259°
2026-05-06 23:45 28.81400 -15.08749 21055 ft 439 kts 259°
2026-05-06 23:46 28.80622 -15.12119 21057 ft 439 kts 259°
2026-05-06 23:46 28.79846 -15.15489 21058 ft 439 kts 259°
2026-05-06 23:46 28.79078 -15.18825 21057 ft 439 kts 259°
2026-05-06 23:46 28.78301 -15.22197 21061 ft 440 kts 259°
2026-05-06 23:47 28.77524 -15.25565 21059 ft 440 kts 259°
2026-05-06 23:47 28.76741 -15.28954 21056 ft 440 kts 259°
2026-05-06 23:47 28.75960 -15.32326 21065 ft 440 kts 259°
2026-05-06 23:47 28.75178 -15.35700 21055 ft 440 kts 259°
2026-05-06 23:48 28.74395 -15.39077 21059 ft 440 kts 259°
2026-05-06 23:48 28.73615 -15.42428 20941 ft 430 kts 259°
2026-05-06 23:48 28.72856 -15.45674 20627 ft 417 kts 259°
2026-05-06 23:48 28.72121 -15.48814 20332 ft 404 kts 259°
2026-05-06 23:49 28.71265 -15.51777 20035 ft 396 kts 250°
2026-05-06 23:49 28.69967 -15.54515 19732 ft 379 kts 244°
2026-05-06 23:49 28.68680 -15.57015 19438 ft 362 kts 244°
2026-05-06 23:49 28.67429 -15.59442 19144 ft 349 kts 244°
2026-05-06 23:50 28.66243 -15.61752 18839 ft 325 kts 244°
2026-05-06 23:50 28.64100 -15.65965 18208 ft 301 kts 245°
2026-05-06 23:50 28.63043 -15.68072 17192 ft 307 kts 245°
2026-05-06 23:51 28.61985 -15.70177 16287 ft 304 kts 244°
2026-05-06 23:51 28.60947 -15.72237 15639 ft 292 kts 244°
2026-05-06 23:51 28.59951 -15.74209 15079 ft 283 kts 244°
2026-05-06 23:51 28.58981 -15.76133 14541 ft 277 kts 244°
2026-05-06 23:52 28.58024 -15.78032 14009 ft 277 kts 244°
2026-05-06 23:52 28.57063 -15.79941 13450 ft 279 kts 243°
2026-05-06 23:52 28.56100 -15.81852 12855 ft 277 kts 243°
2026-05-06 23:52 28.55145 -15.83744 12165 ft 276 kts 243°
2026-05-06 23:53 28.54196 -15.85624 11388 ft 277 kts 243°
2026-05-06 23:53 28.53241 -15.87512 10622 ft 273 kts 242°
2026-05-06 23:53 28.52349 -15.89276 9907 ft 269 kts 242°
2026-05-06 23:53 28.51420 -15.91112 9080 ft 265 kts 242°
2026-05-06 23:54 28.50501 -15.92927 8267 ft 263 kts 242°
2026-05-06 23:54 28.49592 -15.94721 7484 ft 262 kts 242°
2026-05-06 23:54 28.48691 -15.96501 6720 ft 262 kts 243°
2026-05-06 23:54 28.47764 -15.98334 5953 ft 276 kts 243°
2026-05-06 23:55 28.46790 -16.00258 5429 ft 283 kts 242°
2026-05-06 23:55 28.45809 -16.02191 5257 ft 284 kts 242°
2026-05-06 23:55 28.44817 -16.04146 5150 ft 287 kts 242°
2026-05-06 23:55 28.43811 -16.06126 5044 ft 290 kts 242°
2026-05-06 23:56 28.42791 -16.08089 5004 ft 287 kts 237°
2026-05-06 23:56 28.41405 -16.09740 5014 ft 291 kts 221°
2026-05-06 23:56 28.40062 -16.11357 4949 ft 273 kts 246°
2026-05-06 23:56 28.39744 -16.13320 4809 ft 248 kts 283°
2026-05-06 23:57 28.40495 -16.14953 4612 ft 227 kts 317°
2026-05-06 23:57 28.41533 -16.16229 4480 ft 215 kts 309°
2026-05-06 23:57 28.42315 -16.17618 4419 ft 201 kts 301°
2026-05-06 23:57 28.42930 -16.19001 4412 ft 195 kts 298°
2026-05-06 23:58 28.43506 -16.20471 4461 ft 213 kts 296°
2026-05-06 23:58 28.44120 -16.22068 4267 ft 224 kts 296°
2026-05-06 23:58 28.44730 -16.23692 4091 ft 219 kts 296°
2026-05-06 23:58 28.45275 -16.25259 3684 ft 207 kts 293°
2026-05-06 23:59 28.45751 -16.26769 3200 ft 199 kts 293°
2026-05-06 23:59 28.46252 -16.28183 2861 ft 184 kts 296°
2026-05-06 23:59 28.46707 -16.29425 2737 ft 166 kts 291°
2026-05-06 23:59 28.47058 -16.30531 2604 ft 134 kts 291°
2026-05-07 00:00 28.47388 -16.31506 2293 ft 133 kts 291°
2026-05-07 00:00 28.47708 -16.32481 2089 ft 132 kts 289°
2026-05-07 00:00 28.48010 -16.33389 2031 ft 107 kts 291°
2026-05-07 00:00 28.48220 -16.34016 2053 ft 65 kts 291°
2026-05-07 00:01 28.48389 -16.34514 2065 ft 76 kts 290°
2026-05-07 00:01 28.48584 -16.35103 2070 ft 63 kts 289°
2026-05-07 00:01 28.48740 -16.35297 2070 ft 2 kts 50°
2026-05-07 00:01 28.48742 -16.35247 2070 ft 16 kts 105°
2026-05-07 00:02 28.48681 -16.35057 2070 ft 35 kts 111°
2026-05-07 00:02 28.48593 -16.34797 2069 ft 19 kts 104°
2026-05-07 00:02 28.48652 -16.34711 2069 ft 12 kts 19°
2026-05-07 00:02 28.48679 -16.34699 2069 ft 0 kts 20°
2026-05-07 00:03 28.48688 -16.34696 2069 ft 0 kts 20°